Time,TemperatureF,DewpointF,PressureIn,WindDirection,WindDirectionDegrees,WindSpeedMPH,WindSpeedGustMPH,Humidity,HourlyPrecipIn,Conditions,Clouds,dailyrainin,SolarRadiationWatts/m^2,SoftwareType,DateUTC
2013-08-09 02:20:00,64.8,59.5,29.98,WNW,296,0.0,0.0,83,0.00,BKN,,0.00,0.0,WeatherDisplay:10.37,2013-08-09 07:20:00,
2013-08-09 02:25:00,64.8,59.5,29.98,WNW,296,0.0,0.0,83,0.00,BKN,,0.00,0.0,WeatherDisplay:10.37,2013-08-09 07:25:00,
2013-08-09 02:30:00,64.7,59.4,29.97,WNW,296,0.0,0.0,83,0.00,BKN,,0.00,0.0,WeatherDisplay:10.37,2013-08-09 07:30:00,
2013-08-09 02:35:00,64.7,59.4,29.97,WNW,296,0.0,0.0,83,0.00,BKN,,0.00,0.0,WeatherDisplay:10.37,2013-08-09 07:35:00,
2013-08-09 02:40:00,64.5,59.2,29.97,WNW,296,0.0,0.0,83,0.00,BKN,,0.00,0.0,WeatherDisplay:10.37,2013-08-09 07:40:00,
2013-08-09 02:45:00,64.3,59.0,29.97,WNW,296,0.0,0.0,83,0.00,BKN,,0.00,0.0,WeatherDisplay:10.37,2013-08-09 07:45:00,
2013-08-09 02:50:00,64.2,59.3,29.97,WNW,296,0.0,0.0,84,0.00,BKN,,0.00,0.0,WeatherDisplay:10.37,2013-08-09 07:50:00,
2013-08-09 02:55:00,64.2,59.3,29.97,WNW,296,0.0,0.0,84,0.00,BKN,,0.00,0.0,WeatherDisplay:10.37,2013-08-09 07:55:00,
2013-08-09 03:00:00,64.0,59.1,29.97,WNW,296,0.0,0.0,84,0.00,BKN,,0.00,0.0,WeatherDisplay:10.37,2013-08-09 08:00:00,
2013-08-09 03:05:00,64.0,59.1,29.97,WNW,296,0.0,0.0,84,0.00,BKN,,0.00,0.0,WeatherDisplay:10.37,2013-08-09 08:05:00,
2013-08-09 03:10:00,64.0,59.4,29.97,WNW,296,0.0,0.0,85,0.00,BKN,,0.00,0.0,WeatherDisplay:10.37,2013-08-09 08:10:00,
2013-08-09 03:15:00,64.0,59.4,29.97,WNW,296,0.0,0.0,85,0.00,BKN,,0.00,0.0,WeatherDisplay:10.37,2013-08-09 08:15:00,
2013-08-09 03:20:00,64.0,59.4,29.97,WNW,296,0.0,0.0,85,0.00,BKN,,0.00,0.0,WeatherDisplay:10.37,2013-08-09 08:20:00,
2013-08-09 03:25:00,64.0,59.4,29.97,WNW,296,0.0,0.0,85,0.00,BKN,,0.00,0.0,WeatherDisplay:10.37,2013-08-09 08:25:00,
2013-08-09 03:30:00,64.2,59.6,29.97,WNW,296,0.0,0.0,85,0.00,BKN,,0.00,0.0,WeatherDisplay:10.37,2013-08-09 08:30:00,
2013-08-09 03:35:00,64.2,59.6,29.97,WNW,296,0.0,0.0,85,0.00,BKN,,0.00,0.0,WeatherDisplay:10.37,2013-08-09 08:35:00,
2013-08-09 03:40:00,64.2,59.3,29.97,WNW,296,0.0,0.0,84,0.00,BKN,,0.00,0.0,WeatherDisplay:10.37,2013-08-09 08:40:00,
2013-08-09 03:45:00,64.2,59.3,29.96,WNW,296,0.0,0.0,84,0.00,BKN,,0.00,0.0,WeatherDisplay:10.37,2013-08-09 08:45:00,
2013-08-09 03:50:00,64.2,59.6,29.96,WNW,296,0.0,0.0,85,0.00,BKN,,0.00,0.0,WeatherDisplay:10.37,2013-08-09 08:50:00,
2013-08-09 03:55:00,64.3,59.7,29.96,WNW,296,0.0,0.0,85,0.00,BKN,,0.00,0.0,WeatherDisplay:10.37,2013-08-09 08:55:00,
2013-08-09 04:00:00,64.3,59.7,29.96,WNW,296,0.0,0.0,85,0.00,BKN,,0.00,0.0,WeatherDisplay:10.37,2013-08-09 09:00:00,
2013-08-09 04:05:00,64.3,59.7,29.96,WNW,296,0.0,0.0,85,0.00,BKN,,0.00,0.0,WeatherDisplay:10.37,2013-08-09 09:05:00,
2013-08-09 04:10:00,64.3,60.0,29.96,WNW,296,0.0,0.0,86,0.00,BKN,,0.00,0.0,WeatherDisplay:10.37,2013-08-09 09:10:00,
2013-08-09 04:15:00,64.3,60.0,29.96,WNW,296,0.0,0.0,86,0.00,BKN,,0.00,0.0,WeatherDisplay:10.37,2013-08-09 09:15:00,
2013-08-09 04:20:00,64.3,60.0,29.96,WNW,296,0.0,0.0,86,0.00,BKN,,0.00,0.0,WeatherDisplay:10.37,2013-08-09 09:20:00,
2013-08-09 04:25:00,64.3,60.0,29.96,WNW,296,0.0,0.0,86,0.00,BKN,,0.00,0.0,WeatherDisplay:10.37,2013-08-09 09:25:00,
2013-08-09 04:30:00,64.2,59.9,29.96,WNW,296,0.0,0.0,86,0.00,BKN,,0.00,0.0,WeatherDisplay:10.37,2013-08-09 09:30:00,
2013-08-09 04:35:00,64.2,59.9,29.96,WNW,296,0.0,0.0,86,0.00,BKN,,0.00,0.0,WeatherDisplay:10.37,2013-08-09 09:35:00,
2013-08-09 04:40:00,64.3,60.3,29.96,WNW,296,0.0,0.0,87,0.00,BKN,,0.00,0.0,WeatherDisplay:10.37,2013-08-09 09:40:00,
2013-08-09 04:45:00,64.3,60.3,29.96,WNW,296,0.0,0.0,87,0.00,BKN,,0.00,0.0,WeatherDisplay:10.37,2013-08-09 09:45:00,
2013-08-09 04:50:00,64.3,60.3,29.96,WNW,296,0.0,0.0,87,0.00,BKN,,0.00,0.0,WeatherDisplay:10.37,2013-08-09 09:50:00,
2013-08-09 04:55:00,64.3,60.3,29.96,WNW,296,0.0,0.0,87,0.00,BKN,,0.00,0.0,WeatherDisplay:10.37,2013-08-09 09:55:00,
2013-08-09 05:00:00,64.2,60.2,29.96,WNW,296,0.0,0.0,87,0.00,BKN,,0.00,0.0,WeatherDisplay:10.37,2013-08-09 10:00:00,
2013-08-09 05:05:00,64.2,60.2,29.96,WNW,296,0.0,0.0,87,0.00,BKN,,0.00,0.0,WeatherDisplay:10.37,2013-08-09 10:05:00,
2013-08-09 05:10:00,64.0,59.4,29.96,WNW,296,0.0,0.0,85,0.00,BKN,,0.00,0.0,WeatherDisplay:10.37,2013-08-09 10:10:00,
2013-08-09 05:15:00,64.2,59.3,29.96,WNW,296,0.0,0.0,84,0.00,BKN,,0.00,0.0,WeatherDisplay:10.37,2013-08-09 10:15:00,
2013-08-09 05:20:00,64.2,59.3,29.96,WNW,296,0.0,0.0,84,0.00,BKN,,0.00,0.0,WeatherDisplay:10.37,2013-08-09 10:20:00,
2013-08-09 05:25:00,64.2,59.3,29.96,WNW,296,0.0,0.0,84,0.00,BKN,,0.00,0.0,WeatherDisplay:10.37,2013-08-09 10:25:00,
2013-08-09 05:30:00,64.0,59.1,29.96,WNW,296,0.0,0.0,84,0.00,BKN,,0.00,0.0,WeatherDisplay:10.37,2013-08-09 10:30:00,
2013-08-09 05:35:00,64.0,59.1,29.96,WNW,296,0.0,0.0,84,0.00,BKN,,0.00,0.0,WeatherDisplay:10.37,2013-08-09 10:35:00,
2013-08-09 05:40:00,63.9,59.3,29.96,WNW,296,0.0,0.0,85,0.00,BKN,,0.00,0.0,WeatherDisplay:10.37,2013-08-09 10:40:00,
2013-08-09 05:45:00,63.9,59.3,29.96,WNW,296,0.0,0.0,85,0.00,BKN,,0.00,0.0,WeatherDisplay:10.37,2013-08-09 10:45:00,
2013-08-09 05:50:00,63.7,59.1,29.96,WNW,296,0.0,0.0,85,0.00,BKN,,0.00,0.0,WeatherDisplay:10.37,2013-08-09 10:50:00,
2013-08-09 05:55:00,63.7,59.1,29.96,WNW,296,0.0,0.0,85,0.00,BKN,,0.00,0.0,WeatherDisplay:10.37,2013-08-09 10:55:00,
2013-08-09 06:00:00,63.9,59.0,29.97,WNW,296,0.0,0.0,84,0.00,BKN,,0.00,0.0,WeatherDisplay:10.37,2013-08-09 11:00:00,
2013-08-09 06:05:00,64.0,58.7,29.97,WNW,296,0.0,0.0,83,0.00,BKN,,0.00,0.0,WeatherDisplay:10.37,2013-08-09 11:05:00,
2013-08-09 06:10:00,64.2,58.9,29.97,WNW,296,0.0,0.0,83,0.00,BKN,,0.00,0.0,WeatherDisplay:10.37,2013-08-09 11:10:00,
2013-08-09 06:15:00,64.2,58.9,29.97,WNW,296,0.0,0.0,83,0.00,BKN,,0.00,0.0,WeatherDisplay:10.37,2013-08-09 11:15:00,
2013-08-09 06:20:00,64.0,58.7,29.97,WNW,296,0.0,0.0,83,0.00,BKN,,0.00,5.0,WeatherDisplay:10.37,2013-08-09 11:20:00,
2013-08-09 06:25:00,64.0,58.7,29.97,WNW,296,0.0,0.0,83,0.00,BKN,,0.00,9.0,WeatherDisplay:10.37,2013-08-09 11:25:00,
2013-08-09 06:30:00,63.9,58.6,29.97,WNW,296,0.0,0.0,83,0.00,BKN,,0.00,11.0,WeatherDisplay:10.37,2013-08-09 11:30:00,
2013-08-09 06:35:00,63.9,59.0,29.97,WNW,296,0.0,0.0,84,0.00,BKN,,0.00,14.0,WeatherDisplay:10.37,2013-08-09 11:35:00,
2013-08-09 06:40:00,63.9,59.0,29.97,WNW,296,0.0,0.0,84,0.00,BKN,,0.00,14.0,WeatherDisplay:10.37,2013-08-09 11:40:00,
2013-08-09 06:45:00,63.9,59.3,29.97,WNW,296,0.0,0.0,85,0.00,BKN,,0.00,16.0,WeatherDisplay:10.37,2013-08-09 11:45:00,
2013-08-09 06:50:00,64.0,59.4,29.97,WNW,296,0.0,0.0,85,0.00,BKN,,0.00,21.0,WeatherDisplay:10.37,2013-08-09 11:50:00,
2013-08-09 06:55:00,64.2,59.3,29.97,WNW,296,0.0,0.0,84,0.00,BKN,,0.00,35.0,WeatherDisplay:10.37,2013-08-09 11:55:00,
2013-08-09 07:00:00,64.3,59.0,29.98,WNW,296,0.0,0.0,83,0.00,BKN,,0.00,49.0,WeatherDisplay:10.37,2013-08-09 12:00:00,
2013-08-09 07:05:00,64.5,58.9,29.98,WNW,296,0.0,0.0,82,0.00,BKN,,0.00,60.0,WeatherDisplay:10.37,2013-08-09 12:05:00,
2013-08-09 07:10:00,64.5,58.5,29.98,WNW,296,0.0,0.0,81,0.00,BKN,,0.00,63.0,WeatherDisplay:10.37,2013-08-09 12:10:00,
2013-08-09 07:15:00,64.7,58.7,29.98,WNW,296,0.0,0.0,81,0.00,BKN,,0.00,107.0,WeatherDisplay:10.37,2013-08-09 12:15:00,
2013-08-09 07:16:00,64.7,58.7,29.98,WNW,296,0.0,0.0,81,0.00,BKN,,0.00,107.0,WeatherDisplay:10.37,2013-08-09 12:16:00,
2013-08-09 07:21:00,65.0,59.0,29.98,WNW,296,0.0,0.0,81,0.00,BKN,,0.00,90.0,WeatherDisplay:10.37,2013-08-09 12:21:00,
2013-08-09 07:26:00,65.2,59.2,29.98,WNW,296,0.0,0.0,81,0.00,BKN,,0.00,90.0,WeatherDisplay:10.37,2013-08-09 12:26:00,
2013-08-09 07:31:00,65.3,59.3,29.98,WNW,296,0.0,0.0,81,0.00,BKN,,0.00,76.0,WeatherDisplay:10.37,2013-08-09 12:31:00,
2013-08-09 07:36:00,65.6,59.6,29.98,WNW,296,0.0,0.0,81,0.00,BKN,,0.00,74.0,WeatherDisplay:10.37,2013-08-09 12:36:00,
2013-08-09 07:41:00,65.6,59.6,29.98,WNW,296,0.0,0.0,81,0.00,BKN,,0.00,120.0,WeatherDisplay:10.37,2013-08-09 12:41:00,
2013-08-09 07:46:00,65.8,59.5,29.98,WNW,296,0.0,0.0,80,0.00,BKN,,0.00,276.0,WeatherDisplay:10.37,2013-08-09 12:46:00,
2013-08-09 07:51:00,66.1,59.4,29.98,WNW,296,0.0,0.0,79,0.00,BKN,,0.00,132.0,WeatherDisplay:10.37,2013-08-09 12:51:00,
2013-08-09 07:56:00,66.4,59.3,29.98,WNW,296,0.0,0.0,78,0.00,BKN,,0.00,163.0,WeatherDisplay:10.37,2013-08-09 12:56:00,
2013-08-09 08:01:00,66.8,59.4,29.98,WNW,296,0.0,0.0,77,0.00,BKN,,0.00,239.0,WeatherDisplay:10.37,2013-08-09 13:01:00,
2013-08-09 08:06:00,67.3,59.1,29.98,WNW,296,0.0,0.0,75,0.00,BKN,,0.00,153.0,WeatherDisplay:10.37,2013-08-09 13:06:00,
2013-08-09 08:11:00,67.8,59.2,29.98,WNW,296,0.0,0.0,74,0.00,BKN,,0.00,162.0,WeatherDisplay:10.37,2013-08-09 13:11:00,
2013-08-09 08:16:00,67.9,59.3,29.98,WNW,296,0.0,0.0,74,0.00,BKN,,0.00,353.0,WeatherDisplay:10.37,2013-08-09 13:16:00,
2013-08-09 08:21:00,68.3,60.1,29.98,WNW,296,0.0,0.0,75,0.00,BKN,,0.00,364.0,WeatherDisplay:10.37,2013-08-09 13:21:00,
2013-08-09 08:26:00,68.8,59.8,29.98,NW,321,0.0,0.0,73,0.00,BKN,,0.00,383.0,WeatherDisplay:10.37,2013-08-09 13:26:00,
2013-08-09 08:31:00,69.1,60.1,29.98,NW,304,0.0,0.0,73,0.00,BKN,,0.00,394.0,WeatherDisplay:10.37,2013-08-09 13:31:00,
2013-08-09 08:36:00,69.3,60.3,29.98,WNW,296,0.1,1.2,73,0.00,BKN,,0.00,401.0,WeatherDisplay:10.37,2013-08-09 13:36:00,
2013-08-09 08:41:00,69.4,60.0,29.98,WNW,285,0.0,0.0,72,0.00,BKN,,0.00,432.0,WeatherDisplay:10.37,2013-08-09 13:41:00,
2013-08-09 08:46:00,69.6,60.2,29.97,NW,313,0.0,0.0,72,0.00,BKN,,0.00,508.0,WeatherDisplay:10.37,2013-08-09 13:46:00,
2013-08-09 08:51:00,70.3,60.1,29.97,NW,317,0.0,1.2,70,0.00,BKN,,0.00,599.0,WeatherDisplay:10.37,2013-08-09 13:51:00,
2013-08-09 08:56:00,70.3,59.6,29.97,North,355,0.1,3.5,69,0.00,BKN,,0.00,323.0,WeatherDisplay:10.37,2013-08-09 13:56:00,
2013-08-09 09:01:00,70.1,59.5,29.98,NW,323,1.5,4.4,69,0.00,SCT,,0.00,227.0,WeatherDisplay:10.37,2013-08-09 14:01:00,
2013-08-09 09:06:00,69.8,60.0,29.98,WNW,301,0.0,1.2,71,0.00,SCT,,0.00,513.0,WeatherDisplay:10.37,2013-08-09 14:06:00,
2013-08-09 09:11:00,69.9,60.1,29.98,NW,315,0.1,4.6,71,0.00,CLR,,0.00,541.0,WeatherDisplay:10.37,2013-08-09 14:11:00,
2013-08-09 09:16:00,70.3,60.4,29.98,West,271,0.0,0.0,71,0.00,CLR,,0.00,582.0,WeatherDisplay:10.37,2013-08-09 14:16:00,
2013-08-09 09:21:00,70.4,59.7,29.98,WNW,284,1.2,4.6,69,0.00,FEW,,0.00,301.0,WeatherDisplay:10.37,2013-08-09 14:21:00,
2013-08-09 09:26:00,70.4,59.7,29.98,NW,313,0.0,1.2,69,0.00,SCT,,0.00,334.0,WeatherDisplay:10.37,2013-08-09 14:26:00,
2013-08-09 09:31:00,70.8,60.1,29.98,NW,325,0.0,0.0,69,0.00,FEW,,0.00,364.0,WeatherDisplay:10.37,2013-08-09 14:31:00,
2013-08-09 09:36:00,71.1,60.0,29.98,WNW,298,1.2,8.1,68,0.00,SCT,,0.00,316.0,WeatherDisplay:10.37,2013-08-09 14:36:00,
2013-08-09 09:41:00,70.9,60.2,29.98,WNW,296,0.0,1.1,69,0.00,BKN,,0.00,299.0,WeatherDisplay:10.37,2013-08-09 14:41:00,
2013-08-09 09:46:00,70.6,59.9,29.99,WNW,300,0.0,1.2,69,0.00,BKN,,0.00,269.0,WeatherDisplay:10.37,2013-08-09 14:46:00,
2013-08-09 09:51:00,70.8,60.5,29.99,WNW,300,0.0,0.0,70,0.00,BKN,,0.00,255.0,WeatherDisplay:10.37,2013-08-09 14:51:00,
2013-08-09 09:56:00,70.8,60.5,29.99,WNW,303,0.0,0.0,70,0.00,BKN,,0.00,330.0,WeatherDisplay:10.37,2013-08-09 14:56:00,
2013-08-09 10:01:00,70.9,60.2,29.99,NW,304,0.0,0.0,69,0.00,BKN,,0.00,360.0,WeatherDisplay:10.37,2013-08-09 15:01:00,
2013-08-09 10:06:00,70.9,59.8,29.99,West,280,0.6,3.5,68,0.00,BKN,,0.00,380.0,WeatherDisplay:10.37,2013-08-09 15:06:00,
2013-08-09 10:11:00,71.1,60.4,29.99,NW,326,0.0,0.0,69,0.00,BKN,,0.00,411.0,WeatherDisplay:10.37,2013-08-09 15:11:00,
2013-08-09 10:16:00,71.5,59.5,29.99,NW,311,0.2,2.3,66,0.00,SCT,,0.00,700.0,WeatherDisplay:10.37,2013-08-09 15:16:00,
2013-08-09 10:21:00,72.1,58.8,29.99,WNW,288,0.6,6.6,63,0.00,FEW,,0.00,664.0,WeatherDisplay:10.37,2013-08-09 15:21:00,
2013-08-09 10:26:00,71.8,59.0,29.99,WNW,302,1.3,3.5,64,0.00,FEW,,0.00,705.0,WeatherDisplay:10.37,2013-08-09 15:26:00,
2013-08-09 10:31:00,72.5,60.5,29.99,NW,320,0.0,0.0,66,0.00,FEW,,0.00,715.0,WeatherDisplay:10.37,2013-08-09 15:31:00,
2013-08-09 10:36:00,72.8,60.8,29.99,WNW,290,0.5,5.8,66,0.00,FEW,,0.00,687.0,WeatherDisplay:10.37,2013-08-09 15:36:00,
2013-08-09 10:41:00,72.8,59.9,29.99,WSW,258,2.5,6.9,64,0.00,FEW,,0.00,703.0,WeatherDisplay:10.37,2013-08-09 15:41:00,
2013-08-09 10:46:00,73.0,60.5,29.99,NNW,327,0.2,3.5,65,0.00,FEW,,0.00,759.0,WeatherDisplay:10.37,2013-08-09 15:46:00,
2013-08-09 10:51:00,73.2,60.3,29.99,WNW,300,0.0,1.2,64,0.00,FEW,,0.00,721.0,WeatherDisplay:10.37,2013-08-09 15:51:00,
2013-08-09 10:56:00,74.0,61.0,29.99,West,276,0.1,1.2,64,0.00,FEW,,0.00,724.0,WeatherDisplay:10.37,2013-08-09 15:56:00,
2013-08-09 11:01:00,74.4,61.0,29.98,WNW,296,0.0,0.0,63,0.00,FEW,,0.00,701.0,WeatherDisplay:10.37,2013-08-09 16:01:00,
2013-08-09 11:06:00,74.6,61.6,29.98,NNW,329,1.1,5.8,64,0.00,FEW,,0.00,789.0,WeatherDisplay:10.37,2013-08-09 16:06:00,
2013-08-09 11:11:00,74.4,60.1,29.98,North,355,3.2,6.9,61,0.00,FEW,,0.00,812.0,WeatherDisplay:10.37,2013-08-09 16:11:00,
2013-08-09 11:16:00,74.9,60.1,29.98,East,95,0.0,0.0,60,0.00,FEW,,0.00,793.0,WeatherDisplay:10.37,2013-08-09 16:16:00,
2013-08-09 11:21:00,74.7,60.4,29.98,WNW,286,0.0,0.0,61,0.00,FEW,,0.00,763.0,WeatherDisplay:10.37,2013-08-09 16:21:00,
2013-08-09 11:24:00,74.6,60.7,29.98,WNW,301,0.1,1.2,62,0.00,FEW,,0.00,763.0,WeatherDisplay:10.37,2013-08-09 16:24:00,
2013-08-09 11:29:00,75.4,61.0,29.98,NNW,346,0.0,4.6,61,0.00,FEW,,0.00,874.0,WeatherDisplay:10.37,2013-08-09 16:29:00,
2013-08-09 11:34:00,75.4,60.1,29.98,WNW,298,0.8,3.5,59,0.00,FEW,,0.00,854.0,WeatherDisplay:10.37,2013-08-09 16:34:00,
2013-08-09 11:39:00,75.8,59.5,29.98,WNW,294,0.1,4.6,57,0.00,FEW,,0.00,835.0,WeatherDisplay:10.37,2013-08-09 16:39:00,
2013-08-09 11:44:00,76.5,60.6,29.98,NW,325,0.0,0.0,58,0.00,FEW,,0.00,867.0,WeatherDisplay:10.37,2013-08-09 16:44:00,
2013-08-09 11:49:00,76.5,60.1,29.98,WNW,290,0.1,2.3,57,0.00,CLR,,0.00,867.0,WeatherDisplay:10.37,2013-08-09 16:49:00,
2013-08-09 11:54:00,76.1,60.2,29.98,West,271,0.7,4.6,58,0.00,SCT,,0.00,227.0,WeatherDisplay:10.37,2013-08-09 16:54:00,
2013-08-09 11:59:00,75.1,59.8,29.98,NW,322,1.9,6.9,59,0.00,SCT,,0.00,246.0,WeatherDisplay:10.37,2013-08-09 16:59:00,
2013-08-09 12:04:00,75.3,60.5,29.98,NNW,330,1.3,4.6,60,0.00,SCT,,0.00,216.0,WeatherDisplay:10.37,2013-08-09 17:04:00,
2013-08-09 12:09:00,75.3,60.9,29.98,North,355,0.0,3.5,61,0.00,SCT,,0.00,844.0,WeatherDisplay:10.37,2013-08-09 17:09:00,
2013-08-09 12:14:00,75.4,59.1,29.98,North,360,0.1,5.8,57,0.00,SCT,,0.00,921.0,WeatherDisplay:10.37,2013-08-09 17:14:00,
2013-08-09 12:19:00,75.1,59.3,29.98,WNW,298,0.0,0.0,58,0.00,SCT,,0.00,373.0,WeatherDisplay:10.37,2013-08-09 17:19:00,
2013-08-09 12:24:00,75.1,60.7,29.98,NNW,329,1.5,5.8,61,0.00,BKN,,0.00,979.0,WeatherDisplay:10.37,2013-08-09 17:24:00,
2013-08-09 12:29:00,76.3,58.4,29.98,WNW,292,0.4,3.5,54,0.00,CLR,,0.00,1030.0,WeatherDisplay:10.37,2013-08-09 17:29:00,
2013-08-09 12:34:00,76.1,59.3,29.98,WNW,302,0.1,1.2,56,0.00,CLR,,0.00,1030.0,WeatherDisplay:10.37,2013-08-09 17:34:00,
2013-08-09 12:39:00,75.8,59.0,29.98,North,355,3.2,8.8,56,0.00,SCT,,0.00,840.0,WeatherDisplay:10.37,2013-08-09 17:39:00,
2013-08-09 12:44:00,75.8,59.5,29.98,NW,308,0.0,1.2,57,0.00,SCT,,0.00,313.0,WeatherDisplay:10.37,2013-08-09 17:44:00,
2013-08-09 12:49:00,75.8,59.0,29.98,WNW,298,1.1,8.1,56,0.00,BKN,,0.00,236.0,WeatherDisplay:10.37,2013-08-09 17:49:00,
2013-08-09 12:54:00,75.6,59.8,29.98,WNW,289,0.0,0.0,58,0.00,BKN,,0.00,257.0,WeatherDisplay:10.37,2013-08-09 17:54:00,
2013-08-09 12:59:00,75.8,59.5,29.98,North,355,1.4,4.6,57,0.00,BKN,,0.00,918.0,WeatherDisplay:10.37,2013-08-09 17:59:00,
2013-08-09 13:04:00,76.5,59.6,29.98,North,350,0.9,4.6,56,0.00,FEW,,0.00,935.0,WeatherDisplay:10.37,2013-08-09 18:04:00,
2013-08-09 13:09:00,77.2,57.7,29.98,NNE,20,1.6,4.6,51,0.00,FEW,,0.00,965.0,WeatherDisplay:10.37,2013-08-09 18:09:00,
2013-08-09 13:14:00,77.4,58.4,29.98,WNW,284,3.3,6.9,52,0.00,CLR,,0.00,197.0,WeatherDisplay:10.37,2013-08-09 18:14:00,
2013-08-09 13:19:00,76.5,58.1,29.98,West,269,0.6,8.1,53,0.00,BKN,,0.00,155.0,WeatherDisplay:10.37,2013-08-09 18:19:00,
2013-08-09 13:24:00,75.8,56.4,29.98,SW,234,0.9,4.6,51,0.00,BKN,,0.00,812.0,WeatherDisplay:10.37,2013-08-09 18:24:00,
2013-08-09 13:29:00,77.7,58.7,29.98,WSW,241,0.0,1.2,52,0.00,FEW,,0.00,863.0,WeatherDisplay:10.37,2013-08-09 18:29:00,
2013-08-09 13:34:00,77.2,57.7,29.98,WNW,291,1.9,8.1,51,0.00,FEW,,0.00,863.0,WeatherDisplay:10.37,2013-08-09 18:34:00,
2013-08-09 13:39:00,76.0,56.6,29.98,SSW,205,0.3,4.6,51,0.00,SCT,,0.00,849.0,WeatherDisplay:10.37,2013-08-09 18:39:00,
2013-08-09 13:44:00,76.8,57.8,29.98,WNW,301,0.0,1.2,52,0.00,FEW,,0.00,768.0,WeatherDisplay:10.37,2013-08-09 18:44:00,
2013-08-09 13:49:00,76.8,55.0,29.98,WNW,286,0.5,4.6,47,0.00,FEW,,0.00,854.0,WeatherDisplay:10.37,2013-08-09 18:49:00,
2013-08-09 13:54:00,77.2,55.4,29.98,NW,323,1.1,5.8,47,0.00,FEW,,0.00,831.0,WeatherDisplay:10.37,2013-08-09 18:54:00,
2013-08-09 13:59:00,77.0,56.9,29.98,SSW,196,0.2,4.6,50,0.00,FEW,,0.00,911.0,WeatherDisplay:10.37,2013-08-09 18:59:00,
2013-08-09 14:04:00,78.3,55.8,29.98,WNW,294,0.0,1.2,46,0.00,FEW,,0.00,738.0,WeatherDisplay:10.37,2013-08-09 19:04:00,
2013-08-09 14:09:00,78.1,55.6,29.98,WNW,286,0.4,4.6,46,0.00,SCT,,0.00,789.0,WeatherDisplay:10.37,2013-08-09 19:09:00,
2013-08-09 14:14:00,77.9,55.5,29.98,WNW,300,0.8,5.8,46,0.00,SCT,,0.00,782.0,WeatherDisplay:10.37,2013-08-09 19:14:00,
2013-08-09 14:19:00,77.4,54.4,29.98,NE,39,0.8,5.8,45,0.00,FEW,,0.00,826.0,WeatherDisplay:10.37,2013-08-09 19:19:00,
2013-08-09 14:24:00,77.4,54.4,29.98,WNW,294,0.1,1.2,45,0.00,FEW,,0.00,923.0,WeatherDisplay:10.37,2013-08-09 19:24:00,
2013-08-09 14:29:00,77.2,56.6,29.98,NNW,329,0.1,1.2,49,0.00,CLR,,0.00,554.0,WeatherDisplay:10.37,2013-08-09 19:29:00,
2013-08-09 14:34:00,77.4,56.7,29.98,NW,309,0.4,5.8,49,0.00,FEW,,0.00,918.0,WeatherDisplay:10.37,2013-08-09 19:34:00,
2013-08-09 14:39:00,78.5,56.0,29.98,West,277,0.0,1.2,46,0.00,FEW,,0.00,870.0,WeatherDisplay:10.37,2013-08-09 19:39:00,
2013-08-09 14:44:00,78.8,53.8,29.99,SW,226,1.4,11.5,42,0.00,CLR,,0.00,930.0,WeatherDisplay:10.37,2013-08-09 19:44:00,
2013-08-09 14:49:00,78.8,55.0,29.99,NW,325,0.1,1.2,44,0.00,CLR,,0.00,840.0,WeatherDisplay:10.37,2013-08-09 19:49:00,
2013-08-09 14:54:00,79.4,55.6,29.99,North,11,0.1,1.2,44,0.00,CLR,,0.00,889.0,WeatherDisplay:10.37,2013-08-09 19:54:00,
2013-08-09 14:59:00,80.1,56.8,29.99,WNW,298,0.2,1.2,45,0.00,CLR,,0.00,928.0,WeatherDisplay:10.37,2013-08-09 19:59:00,
2013-08-09 15:04:00,80.3,56.4,29.99,SSW,192,0.0,1.2,44,0.00,CLR,,0.00,875.0,WeatherDisplay:10.37,2013-08-09 20:04:00,
2013-08-09 15:09:00,79.2,54.1,29.99,NW,309,0.6,2.2,42,0.00,FEW,,0.00,272.0,WeatherDisplay:10.37,2013-08-09 20:09:00,
2013-08-09 15:14:00,78.8,55.7,29.99,NW,318,0.0,4.6,45,0.00,SCT,,0.00,833.0,WeatherDisplay:10.37,2013-08-09 20:14:00,
2013-08-09 15:19:00,79.2,56.6,29.99,NW,318,0.3,3.5,46,0.00,CLR,,0.00,847.0,WeatherDisplay:10.37,2013-08-09 20:19:00,
2013-08-09 15:24:00,79.8,55.3,29.99,SW,234,0.6,5.8,43,0.00,FEW,,0.00,591.0,WeatherDisplay:10.37,2013-08-09 20:24:00,
2013-08-09 15:29:00,79.0,55.8,29.99,NW,315,0.5,6.9,45,0.00,SCT,,0.00,151.0,WeatherDisplay:10.37,2013-08-09 20:29:00,
2013-08-09 15:34:00,78.3,55.2,29.99,NW,305,0.0,1.2,45,0.00,FEW,,0.00,796.0,WeatherDisplay:10.37,2013-08-09 20:34:00,
2013-08-09 15:39:00,78.1,55.6,29.99,NNW,342,0.0,4.6,46,0.00,BKN,,0.00,197.0,WeatherDisplay:10.37,2013-08-09 20:39:00,
2013-08-09 15:44:00,77.7,55.9,29.99,NE,37,0.1,1.2,47,0.00,BKN,,0.00,661.0,WeatherDisplay:10.37,2013-08-09 20:44:00,
2013-08-09 15:49:00,78.1,53.8,29.99,WNW,291,1.5,6.9,43,0.00,SCT,,0.00,719.0,WeatherDisplay:10.37,2013-08-09 20:49:00,
2013-08-09 15:54:00,78.1,55.6,29.99,WSW,246,2.5,6.9,46,0.00,FEW,,0.00,740.0,WeatherDisplay:10.37,2013-08-09 20:54:00,
2013-08-09 15:59:00,78.1,55.0,29.99,NW,326,0.2,1.2,45,0.00,CLR,,0.00,682.0,WeatherDisplay:10.37,2013-08-09 20:59:00,
2013-08-09 16:05:00,78.6,54.9,29.99,WSW,257,1.1,3.5,44,0.00,CLR,,0.00,689.0,WeatherDisplay:10.37,2013-08-09 21:05:00,
2013-08-09 16:10:00,79.4,55.6,29.99,WSW,251,0.9,6.6,44,0.00,CLR,,0.00,645.0,WeatherDisplay:10.37,2013-08-09 21:10:00,
2013-08-09 16:15:00,78.5,56.6,29.99,WNW,296,1.0,5.5,47,0.00,BKN,,0.00,578.0,WeatherDisplay:10.37,2013-08-09 21:15:00,
2013-08-09 16:20:00,78.5,56.6,29.99,NW,319,0.2,1.2,47,0.00,SCT,,0.00,598.0,WeatherDisplay:10.37,2013-08-09 21:20:00,
2013-08-09 16:25:00,79.0,55.8,29.99,NW,314,0.0,1.1,45,0.00,FEW,,0.00,585.0,WeatherDisplay:10.37,2013-08-09 21:25:00,
2013-08-09 16:30:00,78.6,55.5,29.99,NW,323,0.6,3.5,45,0.00,SCT,,0.00,533.0,WeatherDisplay:10.37,2013-08-09 21:30:00,
2013-08-09 16:35:00,77.9,54.8,29.99,NW,325,0.6,3.5,45,0.00,FEW,,0.00,540.0,WeatherDisplay:10.37,2013-08-09 21:35:00,
2013-08-09 16:40:00,77.7,55.3,29.99,West,263,1.0,5.8,46,0.00,SCT,,0.00,427.0,WeatherDisplay:10.37,2013-08-09 21:40:00,
2013-08-09 16:45:00,77.6,55.2,29.99,WNW,292,0.5,6.9,46,0.00,SCT,,0.00,531.0,WeatherDisplay:10.37,2013-08-09 21:45:00,
2013-08-09 16:50:00,77.7,54.7,29.99,NW,323,0.0,3.5,45,0.00,FEW,,0.00,464.0,WeatherDisplay:10.37,2013-08-09 21:50:00,
2013-08-09 16:55:00,78.1,55.6,29.99,West,281,0.5,3.5,46,0.00,SCT,,0.00,408.0,WeatherDisplay:10.37,2013-08-09 21:55:00,
2013-08-09 17:00:00,77.7,56.4,29.99,NW,312,0.0,1.2,48,0.00,SCT,,0.00,438.0,WeatherDisplay:10.37,2013-08-09 22:00:00,
2013-08-09 17:05:00,77.7,55.9,29.99,NW,309,3.6,11.5,47,0.00,FEW,,0.00,457.0,WeatherDisplay:10.37,2013-08-09 22:05:00,
2013-08-09 17:10:00,77.9,54.8,29.99,NW,318,0.3,2.3,45,0.00,SCT,,0.00,424.0,WeatherDisplay:10.37,2013-08-09 22:10:00,
2013-08-09 17:15:00,77.7,55.9,29.99,North,5,0.5,3.5,47,0.00,SCT,,0.00,244.0,WeatherDisplay:10.37,2013-08-09 22:15:00,
2013-08-09 17:20:00,77.4,54.4,29.99,NW,305,0.0,0.0,45,0.00,SCT,,0.00,413.0,WeatherDisplay:10.37,2013-08-09 22:20:00,
2013-08-09 17:25:00,77.0,54.6,29.99,NW,322,0.2,7.7,46,0.00,SCT,,0.00,169.0,WeatherDisplay:10.37,2013-08-09 22:25:00,
2013-08-09 17:30:00,76.7,54.4,30.00,SW,231,0.1,1.2,46,0.00,SCT,,0.00,241.0,WeatherDisplay:10.37,2013-08-09 22:30:00,
2013-08-09 17:35:00,76.8,54.5,30.00,WNW,292,0.0,0.0,46,0.00,SCT,,0.00,327.0,WeatherDisplay:10.37,2013-08-09 22:35:00,
2013-08-09 17:40:00,77.0,56.4,30.00,WNW,284,0.0,0.0,49,0.00,SCT,,0.00,339.0,WeatherDisplay:10.37,2013-08-09 22:40:00,
2013-08-09 17:45:00,77.0,54.6,30.00,West,261,0.1,5.8,46,0.00,SCT,,0.00,334.0,WeatherDisplay:10.37,2013-08-09 22:45:00,
2013-08-09 17:50:00,77.0,55.2,30.00,NW,308,0.1,1.1,47,0.00,SCT,,0.00,178.0,WeatherDisplay:10.37,2013-08-09 22:50:00,
2013-08-09 17:55:00,76.8,55.6,30.00,WNW,292,0.0,0.0,48,0.00,SCT,,0.00,417.0,WeatherDisplay:10.37,2013-08-09 22:55:00,
2013-08-09 18:00:00,77.4,56.2,29.99,NW,313,1.8,5.5,48,0.00,SCT,,0.00,287.0,WeatherDisplay:10.37,2013-08-09 23:00:00,
2013-08-09 18:05:00,77.2,56.0,29.99,WNW,297,0.0,1.1,48,0.00,SCT,,0.00,294.0,WeatherDisplay:10.37,2013-08-09 23:05:00,
2013-08-09 18:10:00,77.0,55.8,29.99,West,271,0.0,4.6,48,0.00,SCT,,0.00,199.0,WeatherDisplay:10.37,2013-08-09 23:10:00,
2013-08-09 18:15:00,76.8,56.2,29.99,NW,307,0.0,1.2,49,0.00,SCT,,0.00,269.0,WeatherDisplay:10.37,2013-08-09 23:15:00,
2013-08-09 18:20:00,76.7,56.1,29.99,NW,305,0.0,0.0,49,0.00,SCT,,0.00,127.0,WeatherDisplay:10.37,2013-08-09 23:20:00,
2013-08-09 18:25:00,76.3,56.3,29.99,NW,305,0.0,0.0,50,0.00,SCT,,0.00,258.0,WeatherDisplay:10.37,2013-08-09 23:25:00,
2013-08-09 18:30:00,76.1,56.1,29.99,WNW,300,2.7,6.6,50,0.00,SCT,,0.00,285.0,WeatherDisplay:10.37,2013-08-09 23:30:00,
2013-08-09 18:35:00,76.0,56.0,30.00,WNW,291,0.0,0.0,50,0.00,SCT,,0.00,169.0,WeatherDisplay:10.37,2013-08-09 23:35:00,
2013-08-09 18:40:00,75.8,55.8,30.00,WNW,301,0.7,4.4,50,0.00,SCT,,0.00,111.0,WeatherDisplay:10.37,2013-08-09 23:40:00,
2013-08-09 18:45:00,75.3,55.9,30.00,WNW,302,1.8,7.7,51,0.00,SCT,,0.00,74.0,WeatherDisplay:10.37,2013-08-09 23:45:00,
2013-08-09 18:50:00,74.7,55.9,30.00,West,270,0.0,0.0,52,0.00,SCT,,0.00,83.0,WeatherDisplay:10.37,2013-08-09 23:50:00,
2013-08-09 18:55:00,74.7,55.9,30.00,West,278,0.0,2.3,52,0.00,SCT,,0.00,130.0,WeatherDisplay:10.37,2013-08-09 23:55:00,
2013-08-09 19:00:00,74.6,55.3,30.00,WNW,282,0.0,0.0,51,0.00,SCT,,0.00,67.0,WeatherDisplay:10.37,2013-08-10 00:00:00,
2013-08-09 19:05:00,74.4,56.2,30.00,NW,313,0.0,1.1,53,0.00,SCT,,0.00,65.0,WeatherDisplay:10.37,2013-08-10 00:05:00,
2013-08-09 19:10:00,74.2,56.0,30.00,WNW,290,0.0,0.0,53,0.00,SCT,,0.00,54.0,WeatherDisplay:10.37,2013-08-10 00:10:00,
2013-08-09 19:15:00,74.0,56.3,30.01,WNW,290,0.0,0.0,54,0.00,SCT,,0.00,40.0,WeatherDisplay:10.37,2013-08-10 00:15:00,
2013-08-09 19:20:00,73.9,56.2,30.01,West,274,0.1,1.2,54,0.00,SCT,,0.00,40.0,WeatherDisplay:10.37,2013-08-10 00:20:00,
2013-08-09 19:25:00,73.7,56.5,30.01,West,275,0.0,1.1,55,0.00,SCT,,0.00,40.0,WeatherDisplay:10.37,2013-08-10 00:25:00,
2013-08-09 19:30:00,73.5,56.3,30.01,West,275,0.0,0.0,55,0.00,SCT,,0.00,33.0,WeatherDisplay:10.37,2013-08-10 00:30:00,
2013-08-09 19:35:00,73.3,56.7,30.01,WNW,287,0.0,0.0,56,0.00,SCT,,0.00,28.0,WeatherDisplay:10.37,2013-08-10 00:35:00,
2013-08-09 19:40:00,73.0,56.4,30.01,WNW,292,0.1,1.2,56,0.00,SCT,,0.00,19.0,WeatherDisplay:10.37,2013-08-10 00:40:00,
2013-08-09 19:45:00,72.8,56.7,30.01,NW,304,0.2,1.2,57,0.00,SCT,,0.00,18.0,WeatherDisplay:10.37,2013-08-10 00:45:00,
2013-08-09 19:50:00,72.5,56.9,30.01,WNW,296,0.0,1.2,58,0.00,SCT,,0.00,16.0,WeatherDisplay:10.37,2013-08-10 00:50:00,
2013-08-09 19:55:00,72.3,56.7,30.01,West,281,0.0,1.2,58,0.00,SCT,,0.00,12.0,WeatherDisplay:10.37,2013-08-10 00:55:00,
2013-08-09 20:00:00,72.1,57.0,30.01,West,279,0.0,0.0,59,0.00,SCT,,0.00,9.0,WeatherDisplay:10.37,2013-08-10 01:00:00,
2013-08-09 20:05:00,71.8,56.7,30.01,NW,306,0.0,0.0,59,0.00,SCT,,0.00,7.0,WeatherDisplay:10.37,2013-08-10 01:05:00,
2013-08-09 20:10:00,71.6,56.5,30.01,NW,306,0.0,0.0,59,0.00,SCT,,0.00,5.0,WeatherDisplay:10.37,2013-08-10 01:10:00,
2013-08-09 20:15:00,71.3,57.2,30.02,NW,306,0.0,0.0,61,0.00,SCT,,0.00,0.0,WeatherDisplay:10.37,2013-08-10 01:15:00,
2013-08-09 20:20:00,70.9,56.3,30.02,NW,306,0.0,0.0,60,0.00,SCT,,0.00,0.0,WeatherDisplay:10.37,2013-08-10 01:20:00,
2013-08-09 20:25:00,70.6,56.0,30.02,WNW,302,0.1,1.1,60,0.00,SCT,,0.00,0.0,WeatherDisplay:10.37,2013-08-10 01:25:00,
2013-08-09 20:30:00,70.4,55.8,30.02,NNW,329,0.0,0.0,60,0.00,SCT,,0.00,0.0,WeatherDisplay:10.37,2013-08-10 01:30:00,
2013-08-09 20:35:00,70.3,56.2,30.02,NNW,332,0.0,0.0,61,0.00,SCT,,0.00,0.0,WeatherDisplay:10.37,2013-08-10 01:35:00,
2013-08-09 20:40:00,70.1,56.5,30.02,WNW,299,0.0,0.0,62,0.00,SCT,,0.00,0.0,WeatherDisplay:10.37,2013-08-10 01:40:00,
2013-08-09 20:45:00,69.8,56.2,30.03,WNW,301,0.0,0.0,62,0.00,SCT,,0.00,0.0,WeatherDisplay:10.37,2013-08-10 01:45:00,
2013-08-09 20:50:00,69.6,56.0,30.03,WNW,298,0.0,0.0,62,0.00,SCT,,0.00,0.0,WeatherDisplay:10.37,2013-08-10 01:50:00,
2013-08-09 20:55:00,69.3,56.2,30.03,WNW,298,0.0,0.0,63,0.00,SCT,,0.00,0.0,WeatherDisplay:10.37,2013-08-10 01:55:00,
2013-08-09 21:00:00,69.1,56.4,30.03,WNW,298,0.0,0.0,64,0.00,SCT,,0.00,0.0,WeatherDisplay:10.37,2013-08-10 02:00:00,
2013-08-09 21:05:00,68.9,56.6,30.03,WNW,298,0.0,0.0,65,0.00,SCT,,0.00,0.0,WeatherDisplay:10.37,2013-08-10 02:05:00,
2013-08-09 21:10:00,68.8,56.6,30.03,WNW,298,0.0,0.0,65,0.00,SCT,,0.00,0.0,WeatherDisplay:10.37,2013-08-10 02:10:00,
2013-08-09 21:15:00,68.4,56.2,30.04,WNW,298,0.0,0.0,65,0.00,SCT,,0.00,0.0,WeatherDisplay:10.37,2013-08-10 02:15:00,
2013-08-09 21:20:00,68.3,56.1,30.04,WNW,298,0.0,0.0,65,0.00,SCT,,0.00,0.0,WeatherDisplay:10.37,2013-08-10 02:20:00,
2013-08-09 21:25:00,67.9,55.7,30.04,WNW,298,0.0,0.0,65,0.00,SCT,,0.00,0.0,WeatherDisplay:10.37,2013-08-10 02:25:00,
2013-08-09 21:30:00,67.6,55.8,30.04,WNW,298,0.0,0.0,66,0.00,SCT,,0.00,0.0,WeatherDisplay:10.37,2013-08-10 02:30:00,
2013-08-09 21:35:00,67.4,55.6,30.04,WNW,298,0.0,0.0,66,0.00,SCT,,0.00,0.0,WeatherDisplay:10.37,2013-08-10 02:35:00,
2013-08-09 21:40:00,67.1,55.8,30.04,WNW,298,0.0,0.0,67,0.00,SCT,,0.00,0.0,WeatherDisplay:10.37,2013-08-10 02:40:00,
2013-08-09 21:45:00,66.8,56.3,30.04,WNW,298,0.0,0.0,69,0.00,SCT,,0.00,0.0,WeatherDisplay:10.37,2013-08-10 02:45:00,
2013-08-09 21:50:00,66.4,56.3,30.04,WNW,298,0.0,0.0,70,0.00,SCT,,0.00,0.0,WeatherDisplay:10.37,2013-08-10 02:50:00,
2013-08-09 21:55:00,66.3,57.0,30.04,WNW,298,0.0,0.0,72,0.00,SCT,,0.00,0.0,WeatherDisplay:10.37,2013-08-10 02:55:00,
2013-08-09 22:00:00,66.0,57.1,30.04,WNW,298,0.0,0.0,73,0.00,SCT,,0.00,0.0,WeatherDisplay:10.37,2013-08-10 03:00:00,
2013-08-09 22:05:00,65.6,57.1,30.04,WNW,298,0.0,0.0,74,0.00,SCT,,0.00,0.0,WeatherDisplay:10.37,2013-08-10 03:05:00,
2013-08-09 22:10:00,65.0,56.5,30.04,WNW,298,0.0,0.0,74,0.00,SCT,,0.00,0.0,WeatherDisplay:10.37,2013-08-10 03:10:00,
2013-08-09 22:15:00,64.5,56.8,30.04,WNW,298,0.0,0.0,76,0.00,SCT,,0.00,0.0,WeatherDisplay:10.37,2013-08-10 03:15:00,
2013-08-09 22:20:00,64.2,56.5,30.04,WNW,298,0.0,0.0,76,0.00,SCT,,0.00,0.0,WeatherDisplay:10.37,2013-08-10 03:20:00,
2013-08-09 22:25:00,63.7,56.0,30.04,WNW,298,0.0,0.0,76,0.00,SCT,,0.00,0.0,WeatherDisplay:10.37,2013-08-10 03:25:00,
2013-08-09 22:30:00,63.4,56.1,30.05,WNW,298,0.0,0.0,77,0.00,SCT,,0.00,0.0,WeatherDisplay:10.37,2013-08-10 03:30:00,
2013-08-09 22:35:00,63.1,56.1,30.05,WNW,298,0.0,0.0,78,0.00,SCT,,0.00,0.0,WeatherDisplay:10.37,2013-08-10 03:35:00,
2013-08-09 22:40:00,62.9,55.9,30.05,WNW,298,0.0,0.0,78,0.00,SCT,,0.00,0.0,WeatherDisplay:10.37,2013-08-10 03:40:00,
2013-08-09 22:45:00,62.7,56.1,30.06,WNW,298,0.0,0.0,79,0.00,SCT,,0.00,0.0,WeatherDisplay:10.37,2013-08-10 03:45:00,
2013-08-09 22:50:00,62.6,56.0,30.06,WNW,298,0.0,0.0,79,0.00,SCT,,0.00,0.0,WeatherDisplay:10.37,2013-08-10 03:50:00,
2013-08-09 22:55:00,62.6,56.0,30.06,WNW,298,0.0,0.0,79,0.00,SCT,,0.00,0.0,WeatherDisplay:10.37,2013-08-10 03:55:00,
2013-08-09 23:00:00,62.6,56.0,30.06,WNW,298,0.0,0.0,79,0.00,SCT,,0.00,0.0,WeatherDisplay:10.37,2013-08-10 04:00:00,
2013-08-09 23:01:00,62.6,56.0,30.06,WNW,298,0.0,0.0,79,0.00,SCT,,0.00,0.0,WeatherDisplay:10.37,2013-08-10 04:01:00,
2013-08-09 23:03:00,62.6,56.0,30.06,WNW,298,0.0,0.0,79,0.00,SCT,,0.00,0.0,WeatherDisplay:10.37,2013-08-10 04:03:00,
2013-08-09 23:08:00,62.6,56.0,30.06,WNW,298,0.0,0.0,79,0.00,SCT,,0.00,0.0,WeatherDisplay:10.37,2013-08-10 04:08:00,
2013-08-09 23:13:00,62.4,55.8,30.06,WNW,298,0.0,0.0,79,0.00,SCT,,0.00,0.0,WeatherDisplay:10.37,2013-08-10 04:13:00,
2013-08-09 23:18:00,62.4,55.8,30.06,WNW,298,0.0,0.0,79,0.00,SCT,,0.00,0.0,WeatherDisplay:10.37,2013-08-10 04:18:00,
2013-08-09 23:23:00,62.3,55.7,30.06,WNW,298,0.0,0.0,79,0.00,SCT,,0.00,0.0,WeatherDisplay:10.37,2013-08-10 04:23:00,
2013-08-09 23:28:00,62.3,55.7,30.06,WNW,298,0.0,0.0,79,0.00,SCT,,0.00,0.0,WeatherDisplay:10.37,2013-08-10 04:28:00,
2013-08-09 23:33:00,62.1,55.5,30.06,WNW,298,0.0,0.0,79,0.00,SCT,,0.00,0.0,WeatherDisplay:10.37,2013-08-10 04:33:00,
2013-08-09 23:38:00,62.1,55.5,30.06,WNW,298,0.0,0.0,79,0.00,SCT,,0.00,0.0,WeatherDisplay:10.37,2013-08-10 04:38:00,
2013-08-09 23:43:00,62.0,55.4,30.06,WNW,298,0.0,0.0,79,0.00,SCT,,0.00,0.0,WeatherDisplay:10.37,2013-08-10 04:43:00,
2013-08-09 23:48:00,61.8,55.2,30.07,WNW,298,0.0,0.0,79,0.00,SCT,,0.00,0.0,WeatherDisplay:10.37,2013-08-10 04:48:00,
2013-08-09 23:53:00,61.5,54.9,30.07,WNW,298,0.0,0.0,79,0.00,SCT,,0.00,0.0,WeatherDisplay:10.37,2013-08-10 04:53:00,
2013-08-09 23:58:00,61.3,55.1,30.07,WNW,298,0.0,0.0,80,0.00,SCT,,0.00,0.0,WeatherDisplay:10.37,2013-08-10 04:58:00,